Location: Bishop�s Knoyle
(51.0728°N, 2.1714°W)
Time: 13:42:14
(UTC+00:00)

NOSS 3-4 (C) - Pass Details

Date: 20 January 2021
Orbit: 878 x 1335 km, 63.4° (Epoch: 16 February)

Event Time Altitude Azimuth Distance (km) Brightness Sun altitude
Rises 17:52:43 0° 249° (WSW) 3,497 8.6 -11.3°
Reaches altitude 10° 17:55:15 10° 256° (WSW) 2,587 7.3 -11.7°
Maximum altitude 18:01:00 46° 329° (NNW) 1,260 4.2 -12.5°
Enters shadow 18:06:55 12° 41° (NE) 2,692 5.3 -13.4°
